When you browse on this site, cookies collect data to enhance your experience and personalize the content and advertising you see.
Visit our Privacy Policy to learn more. By continuing to use the site, you agree to this use of cookies and data.
  • In Romania
  • List of Countries
  • For 7 days
  • Water Temperature
  • Weather Map
  • Weather Widgets
  • user-avatar
    Login

    Hourly Weather Manaus

    Today, 19 January, Sunday

    Time Temperature Precipitation Wind Pressure Humidity
    00:00 +27°C° 0 mm 1 mps 754 mmHg 93%
    01:00 +26°C° 0 mm 1 mps 754 mmHg 93%
    02:00 +26°C° 0 mm 1 mps 753 mmHg 93%
    03:00 +26°C° 0 mm 1 mps 753 mmHg 93%
    04:00 +26°C° 0 mm 1 mps 754 mmHg 93%
    05:00 +26°C° 0 mm 1 mps 754 mmHg 94%
    06:00 +27°C° 0.1 mm 1 mps 754 mmHg 91%
    07:00 +27°C° 0.1 mm 1 mps 754 mmHg 88%
    08:00 +28°C° 0.1 mm 2 mps 755 mmHg 85%
    09:00 +29°C° 0.8 mm 2 mps 755 mmHg 83%
    10:00 +30°C° 0.8 mm 2 mps 755 mmHg 81%
    11:00 +31°C° 0.8 mm 2 mps 755 mmHg 79%
    12:00 +31°C° 1.1 mm 2 mps 754 mmHg 77%
    13:00 +32°C° 1.1 mm 1 mps 753 mmHg 76%
    14:00 +32°C° 1.1 mm 1 mps 752 mmHg 74%
    15:00 +32°C° 0.5 mm 1 mps 752 mmHg 77%
    16:00 +31°C° 0.5 mm 1 mps 752 mmHg 80%
    17:00 +29°C° 0.5 mm 0 mps 752 mmHg 83%
    18:00 +28°C° 1.5 mm 0 mps 752 mmHg 86%
    19:00 +28°C° 1.5 mm 1 mps 753 mmHg 89%
    20:00 +27°C° 1.5 mm 1 mps 753 mmHg 92%
    21:00 +25°C° 0.2 mm 0 mps 753 mmHg 92%
    22:00 +25°C° 0.2 mm 0 mps 754 mmHg 93%
    23:00 +25°C° 0.2 mm 0 mps 754 mmHg 93%

    Tomorrow, 20 January, Monday

    Time Temperature Precipitation Wind Pressure Humidity
    00:00 +25°C° 0 mm 0 mps 753 mmHg 93%
    01:00 +25°C° 0 mm 0 mps 753 mmHg 94%
    02:00 +24°C° 0 mm 0 mps 752 mmHg 94%
    03:00 +24°C° 0.5 mm 0 mps 752 mmHg 94%
    04:00 +24°C° 0.5 mm 0 mps 753 mmHg 95%
    05:00 +24°C° 0.5 mm 0 mps 753 mmHg 95%
    06:00 +24°C° 1 mm 0 mps 753 mmHg 94%
    07:00 +27°C° 1 mm 1 mps 754 mmHg 94%
    08:00 +28°C° 1 mm 1 mps 754 mmHg 93%
    09:00 +28°C° 1.7 mm 1 mps 754 mmHg 91%
    10:00 +29°C° 1.7 mm 1 mps 754 mmHg 89%
    11:00 +30°C° 1.7 mm 2 mps 754 mmHg 88%
    12:00 +30°C° 0.8 mm 2 mps 754 mmHg 84%
    13:00 +30°C° 0.8 mm 2 mps 753 mmHg 81%
    14:00 +31°C° 0.8 mm 2 mps 752 mmHg 77%
    15:00 +30°C° 0.9 mm 2 mps 752 mmHg 82%
    16:00 +29°C° 0.9 mm 2 mps 752 mmHg 86%
    17:00 +29°C° 0.9 mm 1 mps 752 mmHg 91%
    18:00 +28°C° 3.3 mm 2 mps 752 mmHg 93%
    19:00 +27°C° 3.3 mm 2 mps 753 mmHg 95%
    20:00 +26°C° 3.3 mm 2 mps 753 mmHg 97%
    21:00 +26°C° 0.7 mm 1 mps 753 mmHg 97%
    22:00 +26°C° 0.7 mm 1 mps 754 mmHg 96%
    23:00 +24°C° 0.7 mm 0 mps 754 mmHg 96%

    Day after tomorrow, 21 January, Tuesday

    Time Temperature Precipitation Wind Pressure Humidity
    00:00 +26°C° 0.2 mm 1 mps 754 mmHg 96%
    01:00 +26°C° 0.2 mm 1 mps 753 mmHg 97%
    02:00 +26°C° 0.2 mm 1 mps 752 mmHg 97%
    03:00 +26°C° 0.2 mm 1 mps 752 mmHg 97%
    04:00 +26°C° 0.2 mm 1 mps 752 mmHg 96%
    05:00 +25°C° 0.2 mm 1 mps 752 mmHg 96%
    06:00 +26°C° 0.4 mm 1 mps 753 mmHg 96%
    07:00 +26°C° 0.4 mm 1 mps 754 mmHg 95%
    08:00 +27°C° 0.4 mm 2 mps 754 mmHg 94%
    09:00 +27°C° 0.7 mm 2 mps 754 mmHg 92%
    10:00 +28°C° 0.7 mm 2 mps 754 mmHg 90%
    11:00 +29°C° 0.7 mm 3 mps 754 mmHg 88%
    12:00 +30°C° 1.8 mm 3 mps 753 mmHg 86%
    13:00 +30°C° 1.8 mm 2 mps 753 mmHg 85%
    14:00 +30°C° 1.8 mm 2 mps 752 mmHg 83%
    15:00 +30°C° 1 mm 2 mps 751 mmHg 82%
    16:00 +30°C° 1 mm 1 mps 751 mmHg 81%
    17:00 +30°C° 1 mm 1 mps 750 mmHg 81%
    18:00 +29°C° 0.2 mm 1 mps 751 mmHg 84%
    19:00 +28°C° 0.2 mm 1 mps 751 mmHg 86%
    20:00 +27°C° 0.2 mm 1 mps 752 mmHg 89%
    21:00 +27°C° 0 mm 1 mps 752 mmHg 90%
    22:00 +27°C° 0 mm 1 mps 753 mmHg 91%
    23:00 +26°C° 0 mm 1 mps 753 mmHg 92%

    22 January, Wednesday

    Time Temperature Precipitation Wind Pressure Humidity
    00:00 +26°C° 0 mm 1 mps 752 mmHg 92%
    01:00 +26°C° 0 mm 1 mps 752 mmHg 92%
    02:00 +26°C° 0 mm 1 mps 751 mmHg 92%
    03:00 +26°C° 0 mm 1 mps 751 mmHg 93%
    04:00 +25°C° 0 mm 1 mps 751 mmHg 93%
    05:00 +25°C° 0 mm 1 mps 751 mmHg 94%
    06:00 +26°C° 0 mm 1 mps 752 mmHg 92%
    07:00 +26°C° 0 mm 1 mps 752 mmHg 90%
    08:00 +27°C° 0 mm 1 mps 753 mmHg 88%
    09:00 +29°C° 0 mm 1 mps 753 mmHg 79%
    10:00 +30°C° 0 mm 2 mps 753 mmHg 71%
    11:00 +32°C° 0 mm 2 mps 754 mmHg 62%
    12:00 +34°C° 0 mm 2 mps 753 mmHg 59%
    13:00 +35°C° 0 mm 2 mps 752 mmHg 55%
    14:00 +36°C° 0 mm 2 mps 751 mmHg 52%
    15:00 +34°C° 0 mm 1 mps 751 mmHg 55%
    16:00 +34°C° 0 mm 1 mps 750 mmHg 59%
    17:00 +33°C° 0 mm 1 mps 750 mmHg 62%
    18:00 +31°C° 0 mm 1 mps 750 mmHg 67%
    19:00 +30°C° 0 mm 1 mps 750 mmHg 72%
    20:00 +26°C° 0 mm 0 mps 751 mmHg 76%
    21:00 +26°C° 0 mm 0 mps 751 mmHg 78%
    22:00 +25°C° 0 mm 0 mps 752 mmHg 80%
    23:00 +27°C° 0 mm 1 mps 752 mmHg 81%

    23 January, Thursday

    Time Temperature Precipitation Wind Pressure Humidity
    00:00 +27°C° 0 mm 1 mps 752 mmHg 83%
    01:00 +26°C° 0 mm 1 mps 751 mmHg 84%
    02:00 +26°C° 0 mm 1 mps 751 mmHg 86%
    03:00 +24°C° 0 mm 0 mps 751 mmHg 87%
    04:00 +24°C° 0 mm 0 mps 751 mmHg 87%
    05:00 +24°C° 0 mm 0 mps 751 mmHg 88%
    06:00 +27°C° 0 mm 1 mps 751 mmHg 84%
    07:00 +28°C° 0 mm 1 mps 752 mmHg 81%
    08:00 +29°C° 0 mm 1 mps 753 mmHg 77%
    09:00 +31°C° 0 mm 1 mps 753 mmHg 69%
    10:00 +32°C° 0 mm 2 mps 753 mmHg 61%
    11:00 +35°C° 0 mm 2 mps 753 mmHg 53%
    12:00 +36°C° 0 mm 2 mps 752 mmHg 51%
    13:00 +37°C° 0 mm 2 mps 751 mmHg 48%
    14:00 +36°C° 0 mm 1 mps 750 mmHg 46%
    15:00 +36°C° 0 mm 1 mps 750 mmHg 50%
    16:00 +35°C° 0 mm 1 mps 750 mmHg 54%
    17:00 +34°C° 0 mm 1 mps 749 mmHg 58%
    18:00 +33°C° 0 mm 1 mps 750 mmHg 63%
    19:00 +31°C° 0 mm 1 mps 750 mmHg 67%
    20:00 +29°C° 0 mm 1 mps 751 mmHg 72%
    21:00 +29°C° 0 mm 1 mps 751 mmHg 73%
    22:00 +29°C° 0 mm 1 mps 752 mmHg 73%
    23:00 +28°C° 0 mm 1 mps 752 mmHg 74%

    24 January, Friday

    Time Temperature Precipitation Wind Pressure Humidity
    00:00 +28°C° 0 mm 1 mps 752 mmHg 76%
    01:00 +27°C° 0 mm 1 mps 751 mmHg 77%
    02:00 +27°C° 0 mm 1 mps 750 mmHg 79%
    03:00 +27°C° 0 mm 1 mps 750 mmHg 80%
    04:00 +27°C° 0 mm 1 mps 750 mmHg 82%
    05:00 +27°C° 0 mm 1 mps 750 mmHg 84%
    06:00 +28°C° 0 mm 1 mps 751 mmHg 81%
    07:00 +29°C° 0 mm 1 mps 752 mmHg 78%
    08:00 +30°C° 0 mm 1 mps 753 mmHg 75%
    09:00 +30°C° 0.4 mm 1 mps 753 mmHg 74%
    10:00 +31°C° 0.4 mm 1 mps 753 mmHg 73%
    11:00 +32°C° 0.4 mm 2 mps 752 mmHg 72%
    12:00 +34°C° 0.2 mm 1 mps 752 mmHg 64%
    13:00 +35°C° 0.2 mm 1 mps 751 mmHg 55%
    14:00 +36°C° 0.2 mm 1 mps 750 mmHg 47%
    15:00 +35°C° 0 mm 1 mps 750 mmHg 52%
    16:00 +35°C° 0 mm 1 mps 750 mmHg 57%
    17:00 +34°C° 0 mm 1 mps 750 mmHg 62%
    18:00 +32°C° 0 mm 1 mps 750 mmHg 67%
    19:00 +31°C° 0 mm 1 mps 751 mmHg 72%
    20:00 +29°C° 0 mm 1 mps 751 mmHg 78%
    21:00 +29°C° 0 mm 1 mps 752 mmHg 79%
    22:00 +28°C° 0 mm 1 mps 752 mmHg 80%
    23:00 +28°C° 0 mm 1 mps 753 mmHg 81%
    Show more